sat.trackr.live / text

‹ back to catalog

STARLINK-3056

NORAD 49159 · 2021-082AF

PAYLOAD ACTIVE UNKNOWN

§ Identity

Operator
Country
US
Launch date
2021-09-14
Launch site
AFWTR
Launch vehicle
Mass (kg)
RCS (m²)

Purposes: comms

External: N2YO · Heavens-Above · Gunter

§ Orbital elements

Epoch: 2026-05-25T03:05:53.419200Z

Period
96.11 min
Inclination
69.9994°
Eccentricity
0.0003275
Mean motion
14.98324925 rev/d
Perigee alt
569.8 km
Apogee alt
574.3 km
Semi-major
6,950.2 km
B*
-8.1783e-5
RAAN
101.7264°
Arg perigee
271.7034°
Mean anomaly
88.3749°
Rev number
25,852

§ Raw data

STARLINK-30561 49159U 21082AF  26145.12909050 -.00001069  00000+0 -81783-4 0  99932 49159  69.9994 101.7264 0003275 271.7034  88.3749 14.98324925258526

JSON: /api/v1/satellites/49159 · /tle

For live sub-satellite position, see the globe view (requires WebGL).

§ Visibility from observer

Set your observer location to see the next 7 days of passes ≥ 10°. The values pass through the URL so the page stays shareable.

No JS? Fill the form by hand. The geolocation button needs JavaScript.